| time (UTC) | temp F | wind direction | speed MPH | gust MPH | rain 1hr in | rain 24hr in | rain mn in | humidity % | barometer mb |
| 20260831172520 | 82 | 280 | 0.0 | 2.0 | 0.00 | 0.00 | 0.00 | 55 | 1009.3 |
| 20260831172020 | 82 | 0 | 0.0 | 2.0 | 0.00 | 0.00 | 0.00 | 60 | 1009.6 |
| 20260831171534 | 81 | 5 | 0.0 | 4.0 | 0.00 | 0.00 | 0.00 | 55 | 1009.4 |
| 20260831171019 | 81 | 337 | 1.0 | 4.0 | 0.00 | 0.00 | 0.00 | 59 | 1009.5 |
| 20260831170518 | 81 | 327 | 0.0 | 3.0 | 0.00 | 0.00 | 0.00 | 61 | 1009.4 |
| 20260831170039 | 81 | 0 | 0.0 | 2.0 | 0.00 | 0.00 | 0.00 | 61 | 1009.6 |
| 20260831165518 | 80 | 149 | 0.0 | 2.0 | 0.00 | 0.00 | 0.00 | 62 | 1009.5 |
| 20260831165018 | 80 | 0 | 0.0 | 2.0 | 0.00 | 0.00 | 0.00 | 64 | 1009.5 |
| 20260831164536 | 79 | 0 | 0.0 | 2.0 | 0.00 | 0.00 | 0.00 | 65 | 1009.4 |
| 20260831164020 | 79 | 0 | 0.0 | 4.0 | 0.00 | 0.00 | 0.00 | 67 | 1009.6 |
| 20260831163518 | 79 | 94 | 0.0 | 4.0 | 0.00 | 0.00 | 0.00 | 70 | 1009.5 |
| 20260831163045 | 78 | 0 | 0.0 | 3.0 | 0.00 | 0.00 | 0.00 | 70 | 1009.5 |
| 20260831162520 | 78 | 309 | 0.0 | 4.0 | 0.00 | 0.00 | 0.00 | 69 | 1009.5 |
| 20260831162019 | 78 | 234 | 0.0 | 4.0 | 0.00 | 0.00 | 0.00 | 70 | 1009.5 |
| 20260831161537 | 78 | 0 | 0.0 | 3.0 | 0.00 | 0.00 | 0.00 | 71 | 1009.2 |
| 20260831161025 | 77 | 264 | 0.0 | 3.0 | 0.00 | 0.00 | 0.00 | 72 | 1009.2 |
| 20260831160518 | 77 | 0 | 0.0 | 2.0 | 0.00 | 0.00 | 0.00 | 75 | 1009.4 |
| 20260831160052 | 76 | 0 | 0.0 | 2.0 | 0.00 | 0.00 | 0.00 | 75 | 1009.3 |
| 20260831155520 | 76 | 0 | 0.0 | 2.0 | 0.00 | 0.00 | 0.00 | 74 | 1009.2 |
| 20260831155020 | 75 | 0 | 0.0 | 2.0 | 0.00 | 0.00 | 0.00 | 73 | 1009.2 |
| 20260831154600 | 75 | 299 | 0.0 | 2.0 | 0.00 | 0.00 | 0.00 | 77 | 1009.1 |
| 20260831154018 | 75 | 340 | 0.0 | 2.0 | 0.00 | 0.00 | 0.00 | 78 | 1009.2 |
| 20260831153520 | 75 | 265 | 0.0 | 2.0 | 0.00 | 0.00 | 0.00 | 80 | 1009.2 |
| 20260831153038 | 74 | 0 | 0.0 | 2.0 | 0.00 | 0.00 | 0.00 | 81 | 1009.0 |
| 20260831152519 | 74 | 203 | 0.0 | 2.0 | 0.00 | 0.00 | 0.00 | 81 | 1008.9 |
| 20260831152019 | 74 | 0 | 0.0 | 2.0 | 0.00 | 0.00 | 0.00 | 80 | 1008.8 |
| 20260831151540 | 74 | 290 | 0.0 | 2.0 | 0.00 | 0.00 | 0.00 | 80 | 1008.7 |
| 20260831151020 | 74 | 0 | 0.0 | 2.0 | 0.00 | 0.00 | 0.00 | 81 | 1008.7 |
| 20260831150521 | 74 | 290 | 0.0 | 4.0 | 0.00 | 0.00 | 0.00 | 81 | 1008.7 |
| 20260831150044 | 74 | 0 | 0.0 | 4.0 | 0.00 | 0.00 | 0.00 | 82 | 1008.6 |
| 20260831145518 | 74 | 273 | 0.0 | 3.0 | 0.00 | 0.00 | 0.00 | 83 | 1008.5 |
| 20260831145023 | 73 | 0 | 0.0 | 3.0 | 0.00 | 0.00 | 0.00 | 83 | 1008.5 |
| 20260831144539 | 73 | 0 | 0.0 | 2.0 | 0.00 | 0.00 | 0.00 | 83 | 1008.7 |
| 20260831144019 | 73 | 0 | 0.0 | 2.0 | 0.00 | 0.00 | 0.00 | 84 | 1008.5 |
| 20260831143521 | 72 | 0 | 0.0 | 2.0 | 0.00 | 0.00 | 0.00 | 84 | 1008.5 |
| 20260831143040 | 72 | 158 | 0.0 | 2.0 | 0.00 | 0.00 | 0.00 | 84 | 1008.3 |
| 20260831142520 | 72 | 0 | 0.0 | 3.0 | 0.00 | 0.00 | 0.00 | 84 | 1008.1 |
| 20260831142024 | 72 | 30 | 0.0 | 3.0 | 0.00 | 0.00 | 0.00 | 85 | 1007.9 |
| 20260831141540 | 72 | 321 | 0.0 | 3.0 | 0.00 | 0.00 | 0.00 | 86 | 1007.8 |
| 20260831141019 | 72 | 0 | 0.0 | 1.0 | 0.00 | 0.00 | 0.00 | 88 | 1007.9 |
| 20260831140517 | 72 | 73 | 0.0 | 1.0 | 0.00 | 0.00 | 0.00 | 90 | 1007.9 |
| 20260831140047 | 71 | 123 | 0.0 | 1.0 | 0.00 | 0.00 | 0.00 | 90 | 1007.7 |
| 20260831135520 | 71 | 0 | 0.0 | 1.0 | 0.00 | 0.00 | 0.00 | 91 | 1007.8 |
| 20260831135023 | 71 | 0 | 0.0 | 2.0 | 0.00 | 0.00 | 0.00 | 91 | 1007.6 |
| 20260831134538 | 71 | 0 | 0.0 | 2.0 | 0.00 | 0.00 | 0.00 | 92 | 1007.5 |
| 20260831134019 | 71 | 0 | 0.0 | 1.0 | 0.00 | 0.00 | 0.00 | 92 | 1007.5 |
| 20260831133517 | 71 | 0 | 0.0 | 1.0 | 0.00 | 0.00 | 0.00 | 93 | 1007.1 |
| 20260831133038 | 71 | 0 | 0.0 | 2.0 | 0.00 | 0.00 | 0.00 | 93 | 1007.0 |
| 20260831132521 | 70 | 321 | 0.0 | 2.0 | 0.00 | 0.00 | 0.00 | 93 | 1006.9 |
| 20260831132020 | 70 | 315 | 0.0 | 2.0 | 0.00 | 0.00 | 0.00 | 94 | 1006.9 |
| 20260831131536 | 70 | 0 | 0.0 | 2.0 | 0.00 | 0.00 | 0.00 | 94 | 1007.0 |
| 20260831131020 | 70 | 314 | 0.0 | 2.0 | 0.00 | 0.00 | 0.00 | 94 | 1006.8 |
| 20260831130519 | 70 | 300 | 0.0 | 2.0 | 0.00 | 0.00 | 0.00 | 95 | 1006.8 |
| 20260831130040 | 70 | 219 | 0.0 | 2.0 | 0.00 | 0.00 | 0.00 | 95 | 1006.6 |
| 20260831125520 | 70 | 223 | 0.0 | 2.0 | 0.00 | 0.00 | 0.00 | 95 | 1006.6 |
| 20260831125019 | 70 | 0 | 0.0 | 2.0 | 0.00 | 0.00 | 0.00 | 95 | 1006.7 |
| 20260831124537 | 70 | 0 | 0.0 | 2.0 | 0.00 | 0.00 | 0.00 | 95 | 1006.6 |
| 20260831124017 | 70 | 234 | 0.0 | 1.0 | 0.00 | 0.00 | 0.00 | 96 | 1006.6 |
| 20260831123517 | 70 | 0 | 0.0 | 1.0 | 0.00 | 0.00 | 0.00 | 96 | 1006.5 |
| 20260831123040 | 70 | 0 | 0.0 | 1.0 | 0.00 | 0.00 | 0.00 | 95 | 1006.2 |
| 20260831122524 | 69 | 0 | 0.0 | 1.0 | 0.00 | 0.00 | 0.00 | 95 | 1006.3 |
| 20260831122019 | 69 | 0 | 0.0 | 1.0 | 0.00 | 0.00 | 0.00 | 95 | 1006.1 |
| 20260831121537 | 70 | 234 | 0.0 | 0.0 | 0.00 | 0.00 | 0.00 | 95 | 1005.8 |
| 20260831121019 | 70 | 0 | 0.0 | 0.0 | 0.00 | 0.00 | 0.00 | 95 | 1005.6 |
| 20260831120521 | 69 | 0 | 0.0 | 0.0 | 0.00 | 0.00 | 0.00 | 95 | 1005.5 |
| 20260831120041 | 69 | 0 | 0.0 | 0.0 | 0.00 | 0.00 | 0.00 | 95 | 1005.4 |
| 20260831115520 | 69 | 0 | 0.0 | 0.0 | 0.00 | 0.00 | 0.00 | 94 | 1005.4 |
| 20260831115020 | 69 | 0 | 0.0 | 0.0 | 0.00 | 0.00 | 0.00 | 95 | 1005.2 |
| 20260831114547 | 69 | 0 | 0.0 | 0.0 | 0.00 | 0.00 | 0.00 | 95 | 1005.3 |
| 20260831114018 | 69 | 0 | 0.0 | 0.0 | 0.00 | 0.00 | 0.00 | 95 | 1005.0 |
| 20260831113517 | 69 | 0 | 0.0 | 0.0 | 0.00 | 0.00 | 0.00 | 94 | 1005.0 |
| 20260831113041 | 69 | 0 | 0.0 | 0.0 | 0.00 | 0.00 | 0.00 | 94 | 1005.2 |
| 20260831112518 | 69 | 0 | 0.0 | 0.0 | 0.00 | 0.00 | 0.00 | 94 | 1005.1 |
| 20260831112019 | 69 | 0 | 0.0 | 0.0 | 0.00 | 0.00 | 0.00 | 94 | 1005.0 |
| 20260831111538 | 69 | 0 | 0.0 | 1.0 | 0.00 | 0.00 | 0.00 | 94 | 1005.2 |
| 20260831111027 | 69 | 0 | 0.0 | 1.0 | 0.00 | 0.00 | 0.00 | 95 | 1005.1 |
| 20260831110524 | 68 | 0 | 0.0 | 2.0 | 0.00 | 0.00 | 0.00 | 94 | 1005.1 |
| 20260831110049 | 69 | 0 | 0.0 | 2.0 | 0.00 | 0.00 | 0.00 | 93 | 1004.9 |
| 20260831105518 | 69 | 0 | 0.0 | 0.0 | 0.00 | 0.00 | 0.00 | 93 | 1004.8 |
| 20260831105018 | 69 | 0 | 0.0 | 0.0 | 0.00 | 0.00 | 0.00 | 94 | 1004.9 |
| 20260831104541 | 69 | 0 | 0.0 | 0.0 | 0.00 | 0.00 | 0.00 | 94 | 1004.7 |
| 20260831104017 | 69 | 0 | 0.0 | 0.0 | 0.00 | 0.00 | 0.00 | 94 | 1004.8 |
| 20260831103518 | 69 | 0 | 0.0 | 0.0 | 0.00 | 0.00 | 0.00 | 94 | 1004.9 |
| 20260831103040 | 69 | 0 | 0.0 | 0.0 | 0.00 | 0.00 | 0.00 | 94 | 1004.9 |
| 20260831102519 | 69 | 0 | 0.0 | 0.0 | 0.00 | 0.00 | 0.00 | 94 | 1004.8 |
| 20260831102018 | 69 | 0 | 0.0 | 0.0 | 0.00 | 0.00 | 0.00 | 94 | 1004.9 |
| 20260831101544 | 69 | 0 | 0.0 | 0.0 | 0.00 | 0.00 | 0.00 | 93 | 1004.6 |
| 20260831101019 | 70 | 0 | 0.0 | 0.0 | 0.00 | 0.00 | 0.00 | 94 | 1004.5 |
| 20260831100519 | 70 | 0 | 0.0 | 0.0 | 0.00 | 0.00 | 0.00 | 94 | 1004.7 |
| 20260831100042 | 70 | 0 | 0.0 | 0.0 | 0.00 | 0.00 | 0.00 | 94 | 1004.5 |
| 20260831095520 | 70 | 0 | 0.0 | 0.0 | 0.00 | 0.00 | 0.00 | 94 | 1004.4 |
| 20260831095020 | 70 | 0 | 0.0 | 0.0 | 0.00 | 0.00 | 0.00 | 93 | 1004.5 |
| 20260831094541 | 70 | 0 | 0.0 | 0.0 | 0.00 | 0.00 | 0.00 | 93 | 1004.4 |
| 20260831094021 | 70 | 0 | 0.0 | 0.0 | 0.00 | 0.00 | 0.00 | 93 | 1004.4 |
| 20260831093518 | 70 | 0 | 0.0 | 0.0 | 0.00 | 0.00 | 0.00 | 94 | 1004.4 |
| 20260831093038 | 70 | 0 | 0.0 | 0.0 | 0.00 | 0.00 | 0.00 | 94 | 1004.2 |
| 20260831092519 | 70 | 0 | 0.0 | 0.0 | 0.00 | 0.00 | 0.00 | 93 | 1004.4 |
| 20260831092018 | 70 | 0 | 0.0 | 1.0 | 0.00 | 0.00 | 0.00 | 93 | 1004.3 |
| 20260831091545 | 70 | 0 | 0.0 | 1.0 | 0.00 | 0.00 | 0.00 | 93 | 1004.4 |
| 20260831091019 | 70 | 0 | 0.0 | 1.0 | 0.00 | 0.00 | 0.00 | 93 | 1004.4 |
| 20260831090518 | 70 | 0 | 0.0 | 1.0 | 0.00 | 0.00 | 0.00 | 93 | 1004.4 |
| 20260831090036 | 70 | 0 | 0.0 | 1.0 | 0.00 | 0.00 | 0.00 | 93 | 1004.3 |
| 20260831085522 | 71 | 0 | 0.0 | 1.0 | 0.00 | 0.00 | 0.00 | 92 | 1004.4 |
| 20260831085020 | 71 | 0 | 0.0 | 1.0 | 0.00 | 0.00 | 0.00 | 93 | 1004.4 |
| 20260831084539 | 71 | 0 | 0.0 | 1.0 | 0.00 | 0.00 | 0.00 | 93 | 1004.2 |
| 20260831084017 | 71 | 0 | 0.0 | 1.0 | 0.00 | 0.00 | 0.00 | 93 | 1004.3 |
| 20260831083519 | 71 | 0 | 0.0 | 1.0 | 0.00 | 0.00 | 0.00 | 93 | 1004.1 |
| 20260831083038 | 71 | 232 | 0.0 | 1.0 | 0.00 | 0.00 | 0.00 | 93 | 1003.9 |
| 20260831082516 | 72 | 0 | 0.0 | 1.0 | 0.00 | 0.00 | 0.00 | 93 | 1004.0 |
| 20260831082019 | 72 | 232 | 0.0 | 1.0 | 0.00 | 0.00 | 0.00 | 93 | 1004.0 |
| 20260831081538 | 72 | 0 | 0.0 | 1.0 | 0.00 | 0.00 | 0.00 | 93 | 1003.9 |
| 20260831081017 | 72 | 0 | 0.0 | 2.0 | 0.00 | 0.00 | 0.00 | 93 | 1003.9 |
| 20260831080519 | 72 | 232 | 0.0 | 3.0 | 0.00 | 0.00 | 0.00 | 93 | 1003.8 |
| 20260831080039 | 72 | 232 | 0.0 | 3.0 | 0.00 | 0.00 | 0.00 | 93 | 1003.8 |
| 20260831075519 | 72 | 39 | 0.0 | 3.0 | 0.00 | 0.00 | 0.00 | 93 | 1003.8 |
| 20260831075020 | 72 | 0 | 0.0 | 3.0 | 0.00 | 0.00 | 0.00 | 93 | 1003.9 |
| 20260831074541 | 72 | 180 | 0.0 | 4.0 | 0.00 | 0.00 | 0.00 | 92 | 1003.8 |
| 20260831074020 | 72 | 0 | 0.0 | 4.0 | 0.00 | 0.00 | 0.00 | 92 | 1003.9 |
| 20260831073518 | 72 | 223 | 1.0 | 3.0 | 0.00 | 0.00 | 0.00 | 92 | 1003.7 |
| 20260831073039 | 72 | 198 | 0.0 | 2.0 | 0.00 | 0.00 | 0.00 | 92 | 1003.8 |
| 20260831072521 | 72 | 0 | 1.0 | 4.0 | 0.00 | 0.00 | 0.00 | 92 | 1003.9 |
| 20260831072018 | 72 | 0 | 1.0 | 4.0 | 0.00 | 0.00 | 0.00 | 92 | 1003.9 |
| 20260831071541 | 72 | 201 | 0.0 | 5.0 | 0.00 | 0.00 | 0.00 | 92 | 1003.9 |
| 20260831071018 | 72 | 0 | 0.0 | 5.0 | 0.00 | 0.00 | 0.00 | 92 | 1004.0 |
| 20260831070518 | 73 | 157 | 2.0 | 6.0 | 0.00 | 0.00 | 0.00 | 92 | 1004.2 |
| 20260831070045 | 73 | 194 | 2.0 | 6.0 | 0.00 | 0.00 | 0.00 | 92 | 1004.0 |
| 20260831065520 | 73 | 181 | 2.0 | 6.0 | 0.00 | 0.00 | 0.00 | 92 | 1003.9 |
| 20260831065022 | 73 | 182 | 1.0 | 3.0 | 0.00 | 0.00 | 0.00 | 91 | 1004.0 |
| 20260831064541 | 73 | 0 | 0.0 | 3.0 | 0.00 | 0.00 | 0.00 | 91 | 1003.9 |
| 20260831064018 | 73 | 222 | 0.0 | 4.0 | 0.00 | 0.00 | 0.00 | 91 | 1003.9 |
| 20260831063519 | 73 | 185 | 2.0 | 6.0 | 0.00 | 0.00 | 0.00 | 91 | 1003.8 |
| 20260831063038 | 73 | 155 | 2.0 | 6.0 | 0.00 | 0.00 | 0.00 | 91 | 1003.9 |
| 20260831062518 | 73 | 170 | 2.0 | 7.0 | 0.00 | 0.00 | 0.00 | 91 | 1003.8 |
| 20260831062021 | 73 | 142 | 2.0 | 7.0 | 0.00 | 0.00 | 0.00 | 91 | 1003.8 |
| 20260831061540 | 73 | 148 | 3.0 | 8.0 | 0.00 | 0.00 | 0.00 | 90 | 1003.7 |
| 20260831061020 | 73 | 144 | 3.0 | 8.0 | 0.00 | 0.00 | 0.00 | 90 | 1003.8 |
| 20260831060523 | 74 | 128 | 2.0 | 7.0 | 0.00 | 0.00 | 0.00 | 90 | 1003.9 |
| 20260831060041 | 74 | 196 | 3.0 | 8.0 | 0.00 | 0.00 | 0.00 | 90 | 1004.0 |
| 20260831055520 | 74 | 155 | 4.0 | 8.0 | 0.00 | 0.00 | 0.00 | 90 | 1003.8 |
| 20260831055021 | 74 | 125 | 3.0 | 9.0 | 0.00 | 0.00 | 0.00 | 90 | 1003.9 |
| 20260831054538 | 74 | 166 | 3.0 | 9.0 | 0.00 | 0.00 | 0.00 | 90 | 1003.8 |
| 20260831054021 | 74 | 139 | 3.0 | 8.0 | 0.00 | 0.00 | 0.00 | 90 | 1003.9 |
| 20260831053518 | 74 | 165 | 4.0 | 8.0 | 0.00 | 0.00 | 0.00 | 90 | 1003.7 |
| 20260831053036 | 74 | 113 | 4.0 | 9.0 | 0.00 | 0.00 | 0.00 | 89 | 1003.7 |
| 20260831052517 | 74 | 160 | 2.0 | 9.0 | 0.00 | 0.00 | 0.00 | 89 | 1003.9 |
| 20260831052019 | 74 | 119 | 2.0 | 10.0 | 0.00 | 0.00 | 0.00 | 89 | 1003.7 |
| 20260831051544 | 74 | 124 | 4.0 | 12.0 | 0.00 | 0.00 | 0.00 | 89 | 1003.7 |
| 20260831051018 | 74 | 127 | 5.0 | 12.0 | 0.00 | 0.00 | 0.00 | 89 | 1003.8 |
| 20260831050518 | 75 | 131 | 3.0 | 10.0 | 0.00 | 0.00 | 0.00 | 89 | 1003.9 |
| 20260831050037 | 75 | 143 | 4.0 | 10.0 | 0.00 | 0.00 | 0.00 | 89 | 1004.0 |
| 20260831045519 | 75 | 129 | 6.0 | 10.0 | 0.00 | 0.00 | 0.00 | 88 | 1004.0 |
| 20260831045020 | 75 | 128 | 4.0 | 10.0 | 0.00 | 0.00 | 0.00 | 88 | 1004.0 |
| 20260831044537 | 75 | 146 | 4.0 | 10.0 | 0.00 | 0.00 | 0.00 | 88 | 1004.2 |
| 20260831044017 | 75 | 121 | 5.0 | 10.0 | 0.00 | 0.00 | 0.00 | 88 | 1004.3 |
| 20260831043524 | 75 | 140 | 5.0 | 10.0 | 0.00 | 0.00 | 0.00 | 88 | 1004.3 |
| 20260831043037 | 75 | 162 | 4.0 | 10.0 | 0.00 | 0.00 | 0.00 | 88 | 1004.5 |
| 20260831042518 | 76 | 141 | 3.0 | 9.0 | 0.00 | 0.00 | 0.00 | 88 | 1004.5 |
| 20260831042019 | 76 | 135 | 3.0 | 8.0 | 0.00 | 0.00 | 0.00 | 87 | 1004.5 |
| 20260831041552 | 76 | 134 | 2.0 | 8.0 | 0.00 | 0.00 | 0.00 | 87 | 1004.7 |
| 20260831041020 | 76 | 107 | 1.0 | 8.0 | 0.00 | 0.00 | 0.00 | 87 | 1004.7 |
| 20260831040520 | 76 | 132 | 3.0 | 9.0 | 0.00 | 0.00 | 0.00 | 87 | 1004.9 |
| 20260831040042 | 76 | 134 | 3.0 | 9.0 | 0.00 | 0.00 | 0.00 | 87 | 1004.9 |
| 20260831035517 | 76 | 133 | 4.0 | 9.0 | 0.00 | 0.00 | 0.00 | 86 | 1004.8 |
| 20260831035020 | 76 | 139 | 5.0 | 9.0 | 0.00 | 0.00 | 0.00 | 86 | 1004.9 |
| 20260831034544 | 76 | 130 | 3.0 | 8.0 | 0.00 | 0.00 | 0.00 | 86 | 1005.0 |
| 20260831034020 | 77 | 136 | 3.0 | 8.0 | 0.00 | 0.00 | 0.00 | 86 | 1005.0 |
| 20260831033519 | 77 | 134 | 3.0 | 9.0 | 0.00 | 0.00 | 0.00 | 86 | 1005.0 |
| 20260831033039 | 77 | 131 | 4.0 | 9.0 | 0.00 | 0.00 | 0.00 | 86 | 1004.8 |
| 20260831032520 | 77 | 132 | 3.0 | 9.0 | 0.00 | 0.00 | 0.00 | 86 | 1004.7 |
| 20260831032020 | 77 | 105 | 5.0 | 10.0 | 0.00 | 0.00 | 0.00 | 86 | 1004.6 |
| 20260831031535 | 77 | 134 | 3.0 | 10.0 | 0.00 | 0.00 | 0.00 | 86 | 1004.6 |
| 20260831031019 | 77 | 121 | 3.0 | 9.0 | 0.00 | 0.00 | 0.00 | 86 | 1004.6 |
| 20260831030520 | 77 | 102 | 1.0 | 7.0 | 0.00 | 0.00 | 0.00 | 86 | 1004.5 |
| 20260831030046 | 77 | 79 | 1.0 | 6.0 | 0.00 | 0.00 | 0.00 | 86 | 1004.4 |
| 20260831025521 | 77 | 132 | 0.0 | 6.0 | 0.00 | 0.00 | 0.00 | 86 | 1004.5 |
| 20260831025020 | 77 | 0 | 1.0 | 5.0 | 0.00 | 0.00 | 0.00 | 86 | 1004.5 |
| 20260831024543 | 77 | 0 | 0.0 | 3.0 | 0.00 | 0.00 | 0.00 | 86 | 1004.5 |
| 20260831024020 | 77 | 83 | 0.0 | 4.0 | 0.00 | 0.00 | 0.00 | 87 | 1004.4 |
| 20260831023520 | 77 | 132 | 0.0 | 4.0 | 0.00 | 0.00 | 0.00 | 87 | 1004.5 |
| 20260831023040 | 76 | 103 | 0.0 | 3.0 | 0.00 | 0.00 | 0.00 | 87 | 1004.4 |
| 20260831022518 | 76 | 101 | 0.0 | 4.0 | 0.00 | 0.00 | 0.00 | 88 | 1004.4 |
| 20260831022020 | 77 | 102 | 1.0 | 4.0 | 0.00 | 0.00 | 0.00 | 88 | 1004.3 |
| 20260831021536 | 77 | 82 | 1.0 | 3.0 | 0.00 | 0.00 | 0.00 | 88 | 1004.4 |
| 20260831021020 | 77 | 88 | 1.0 | 3.0 | 0.00 | 0.00 | 0.00 | 88 | 1004.3 |
| 20260831020520 | 77 | 100 | 1.0 | 5.0 | 0.00 | 0.00 | 0.00 | 87 | 1004.2 |
| 20260831020036 | 77 | 118 | 1.0 | 5.0 | 0.00 | 0.00 | 0.00 | 87 | 1004.2 |
| 20260831015519 | 77 | 113 | 1.0 | 3.0 | 0.00 | 0.00 | 0.00 | 87 | 1004.2 |
| 20260831015021 | 77 | 0 | 1.0 | 4.0 | 0.00 | 0.00 | 0.00 | 87 | 1004.2 |
| 20260831014540 | 77 | 110 | 1.0 | 4.0 | 0.00 | 0.00 | 0.00 | 87 | 1004.4 |
| 20260831014017 | 77 | 91 | 0.0 | 3.0 | 0.00 | 0.00 | 0.00 | 87 | 1004.2 |
| 20260831013518 | 77 | 0 | 0.0 | 3.0 | 0.00 | 0.00 | 0.00 | 87 | 1004.2 |
| 20260831013040 | 77 | 0 | 0.0 | 2.0 | 0.00 | 0.00 | 0.00 | 88 | 1004.2 |
| 20260831012521 | 77 | 0 | 0.0 | 2.0 | 0.00 | 0.00 | 0.00 | 88 | 1004.1 |
| 20260831012020 | 77 | 0 | 0.0 | 2.0 | 0.00 | 0.00 | 0.00 | 87 | 1004.3 |
| 20260831011539 | 77 | 0 | 0.0 | 2.0 | 0.00 | 0.00 | 0.00 | 87 | 1004.3 |
| 20260831011020 | 78 | 0 | 0.0 | 2.0 | 0.00 | 0.00 | 0.00 | 87 | 1004.4 |
| 20260831010518 | 78 | 96 | 0.0 | 2.0 | 0.00 | 0.00 | 0.00 | 87 | 1004.2 |
| 20260831010036 | 78 | 90 | 0.0 | 2.0 | 0.00 | 0.00 | 0.00 | 86 | 1004.2 |
| 20260831005517 | 77 | 0 | 0.0 | 2.0 | 0.00 | 0.00 | 0.00 | 86 | 1004.2 |
| 20260831005018 | 78 | 85 | 0.0 | 2.0 | 0.00 | 0.00 | 0.00 | 86 | 1004.2 |
| 20260831004540 | 78 | 0 | 0.0 | 2.0 | 0.00 | 0.00 | 0.00 | 86 | 1004.1 |
| 20260831004020 | 78 | 88 | 0.0 | 2.0 | 0.00 | 0.00 | 0.00 | 86 | 1004.3 |
| 20260831003518 | 78 | 0 | 0.0 | 2.0 | 0.00 | 0.00 | 0.00 | 86 | 1004.4 |
| 20260831003041 | 78 | 0 | 0.0 | 2.0 | 0.00 | 0.00 | 0.00 | 86 | 1004.3 |
| 20260831002518 | 78 | 0 | 0.0 | 2.0 | 0.00 | 0.00 | 0.00 | 85 | 1004.2 |
| 20260831002018 | 79 | 109 | 0.0 | 2.0 | 0.00 | 0.00 | 0.00 | 84 | 1004.3 |
| 20260831001538 | 79 | 137 | 0.0 | 2.0 | 0.00 | 0.00 | 0.00 | 84 | 1004.4 |
| 20260831001020 | 79 | 130 | 0.0 | 2.0 | 0.00 | 0.00 | 0.00 | 82 | 1004.5 |
| 20260831000518 | 79 | 0 | 0.0 | 1.0 | 0.00 | 0.00 | 0.00 | 82 | 1004.7 |
| 20260831000042 | 79 | 0 | 0.0 | 2.0 | 0.00 | 0.00 | 0.00 | 82 | 1004.8 |
| 20260830235518 | 79 | 0 | 0.0 | 2.0 | 0.00 | 0.00 | 0.00 | 81 | 1004.6 |
| 20260830235018 | 80 | 0 | 0.0 | 2.0 | 0.00 | 0.00 | 0.00 | 82 | 1004.6 |
| 20260830234546 | 80 | 0 | 0.0 | 5.0 | 0.00 | 0.00 | 0.00 | 81 | 1004.7 |
| 20260830234019 | 80 | 126 | 1.0 | 6.0 | 0.00 | 0.00 | 0.00 | 81 | 1004.6 |
| 20260830233518 | 80 | 125 | 3.0 | 8.0 | 0.00 | 0.00 | 0.00 | 81 | 1004.8 |
| 20260830233039 | 80 | 126 | 2.0 | 9.0 | 0.00 | 0.00 | 0.00 | 81 | 1004.5 |
| 20260830232518 | 80 | 128 | 3.0 | 9.0 | 0.00 | 0.00 | 0.00 | 81 | 1004.7 |
| 20260830232018 | 80 | 118 | 2.0 | 10.0 | 0.00 | 0.00 | 0.00 | 81 | 1004.4 |
| 20260830231541 | 79 | 123 | 6.0 | 12.0 | 0.00 | 0.00 | 0.00 | 81 | 1004.6 |
| 20260830231020 | 79 | 128 | 3.0 | 12.0 | 0.00 | 0.00 | 0.00 | 82 | 1004.7 |
| 20260830230522 | 79 | 123 | 1.0 | 4.0 | 0.00 | 0.00 | 0.00 | 82 | 1004.5 |
| 20260830230046 | 79 | 138 | 1.0 | 4.0 | 0.00 | 0.00 | 0.00 | 82 | 1004.5 |
| 20260830225518 | 79 | 101 | 0.0 | 11.0 | 0.00 | 0.00 | 0.00 | 83 | 1004.3 |
| 20260830225019 | 79 | 121 | 4.0 | 11.0 | 0.00 | 0.00 | 0.00 | 82 | 1004.4 |
| 20260830224542 | 79 | 136 | 1.0 | 6.0 | 0.00 | 0.00 | 0.00 | 83 | 1004.4 |
| 20260830224019 | 79 | 74 | 1.0 | 5.0 | 0.00 | 0.00 | 0.00 | 83 | 1004.3 |
| 20260830223520 | 79 | 74 | 1.0 | 5.0 | 0.00 | 0.00 | 0.00 | 83 | 1004.3 |
| 20260830223035 | 79 | 92 | 1.0 | 5.0 | 0.00 | 0.00 | 0.00 | 83 | 1004.1 |
| 20260830222519 | 79 | 103 | 1.0 | 4.0 | 0.00 | 0.00 | 0.00 | 84 | 1004.2 |
| 20260830222017 | 78 | 101 | 1.0 | 4.0 | 0.00 | 0.00 | 0.00 | 83 | 1004.2 |
| 20260830221540 | 79 | 96 | 1.0 | 4.0 | 0.00 | 0.00 | 0.00 | 83 | 1004.1 |
| 20260830221020 | 79 | 108 | 1.0 | 6.0 | 0.00 | 0.00 | 0.00 | 83 | 1004.1 |
| 20260830220517 | 79 | 103 | 2.0 | 6.0 | 0.00 | 0.00 | 0.00 | 82 | 1004.4 |
| 20260830220042 | 79 | 101 | 2.0 | 4.0 | 0.00 | 0.00 | 0.00 | 82 | 1004.4 |
| 20260830215520 | 79 | 108 | 1.0 | 6.0 | 0.00 | 0.00 | 0.00 | 83 | 1004.5 |
| 20260830215020 | 79 | 92 | 2.0 | 7.0 | 0.00 | 0.00 | 0.00 | 82 | 1004.7 |
| 20260830214536 | 79 | 101 | 2.0 | 9.0 | 0.00 | 0.00 | 0.00 | 81 | 1004.7 |
| 20260830214020 | 79 | 82 | 2.0 | 9.0 | 0.00 | 0.00 | 0.00 | 82 | 1004.5 |
| 20260830213517 | 78 | 91 | 2.0 | 6.0 | 0.00 | 0.00 | 0.00 | 83 | 1004.5 |
| 20260830213037 | 78 | 78 | 2.0 | 6.0 | 0.00 | 0.00 | 0.00 | 83 | 1004.4 |
| 20260830212519 | 78 | 78 | 2.0 | 9.0 | 0.00 | 0.00 | 0.00 | 83 | 1004.5 |
| 20260830212021 | 78 | 109 | 3.0 | 9.0 | 0.00 | 0.00 | 0.00 | 83 | 1004.5 |
| 20260830211538 | 78 | 112 | 2.0 | 6.0 | 0.00 | 0.00 | 0.00 | 84 | 1004.6 |
| 20260830211018 | 78 | 90 | 1.0 | 6.0 | 0.00 | 0.00 | 0.00 | 83 | 1004.7 |
| 20260830210520 | 78 | 107 | 2.0 | 6.0 | 0.00 | 0.00 | 0.00 | 83 | 1004.6 |
| 20260830210037 | 78 | 96 | 2.0 | 6.0 | 0.00 | 0.00 | 0.00 | 83 | 1004.7 |
| 20260830205523 | 78 | 82 | 1.0 | 5.0 | 0.00 | 0.00 | 0.00 | 83 | 1004.7 |
| 20260830205019 | 78 | 53 | 2.0 | 5.0 | 0.00 | 0.00 | 0.00 | 83 | 1004.7 |
| 20260830204538 | 78 | 42 | 2.0 | 4.0 | 0.00 | 0.00 | 0.00 | 83 | 1005.0 |
| 20260830204017 | 78 | 97 | 1.0 | 4.0 | 0.00 | 0.00 | 0.00 | 84 | 1005.0 |
| 20260830203518 | 77 | 107 | 2.0 | 4.0 | 0.00 | 0.00 | 0.00 | 83 | 1004.8 |
| 20260830203039 | 77 | 111 | 1.0 | 4.0 | 0.00 | 0.00 | 0.00 | 84 | 1004.9 |
| 20260830202519 | 77 | 93 | 1.0 | 4.0 | 0.00 | 0.00 | 0.00 | 85 | 1005.1 |
| 20260830202020 | 77 | 98 | 1.0 | 4.0 | 0.00 | 0.00 | 0.00 | 84 | 1005.1 |
| 20260830201542 | 76 | 115 | 1.0 | 4.0 | 0.00 | 0.00 | 0.00 | 85 | 1005.2 |
| 20260830201020 | 76 | 89 | 1.0 | 4.0 | 0.00 | 0.00 | 0.00 | 85 | 1005.2 |
| 20260830200518 | 76 | 113 | 1.0 | 4.0 | 0.00 | 0.00 | 0.00 | 85 | 1005.4 |
| 20260830200039 | 76 | 84 | 1.0 | 4.0 | 0.00 | 0.00 | 0.00 | 85 | 1005.3 |
| 20260830195518 | 76 | 92 | 2.0 | 4.0 | 0.00 | 0.00 | 0.00 | 85 | 1005.3 |
| 20260830195018 | 76 | 89 | 2.0 | 4.0 | 0.00 | 0.00 | 0.00 | 85 | 1005.4 |
| 20260830194541 | 75 | 86 | 2.0 | 4.0 | 0.00 | 0.00 | 0.00 | 85 | 1005.5 |
| 20260830194025 | 75 | 89 | 2.0 | 7.0 | 0.00 | 0.00 | 0.00 | 85 | 1005.4 |
| 20260830193517 | 75 | 90 | 2.0 | 7.0 | 0.00 | 0.00 | 0.00 | 85 | 1005.5 |
| 20260830193042 | 75 | 67 | 2.0 | 6.0 | 0.00 | 0.00 | 0.00 | 85 | 1005.3 |
| 20260830192517 | 75 | 130 | 2.0 | 7.0 | 0.00 | 0.00 | 0.00 | 85 | 1005.4 |
| 20260830192020 | 75 | 153 | 3.0 | 7.0 | 0.00 | 0.00 | 0.00 | 84 | 1005.6 |
| 20260830191537 | 75 | 26 | 2.0 | 8.0 | 0.00 | 0.00 | 0.00 | 85 | 1005.4 |
| 20260830191019 | 75 | 87 | 2.0 | 8.0 | 0.00 | 0.00 | 0.00 | 86 | 1005.4 |
| 20260830190519 | 74 | 142 | 2.0 | 7.0 | 0.00 | 0.00 | 0.00 | 87 | 1005.4 |
| 20260830190037 | 74 | 82 | 3.0 | 6.0 | 0.00 | 0.00 | 0.00 | 86 | 1005.5 |
| 20260830185518 | 74 | 85 | 2.0 | 6.0 | 0.00 | 0.00 | 0.00 | 86 | 1005.5 |
| 20260830185021 | 74 | 90 | 2.0 | 7.0 | 0.00 | 0.00 | 0.00 | 87 | 1005.7 |
| 20260830184537 | 73 | 63 | 2.0 | 7.0 | 0.00 | 0.00 | 0.00 | 88 | 1005.7 |
| 20260830184018 | 73 | 121 | 3.0 | 6.0 | 0.00 | 0.00 | 0.00 | 87 | 1005.9 |
| 20260830183516 | 73 | 63 | 2.0 | 4.0 | 0.00 | 0.00 | 0.00 | 88 | 1006.0 |
| 20260830183038 | 73 | 103 | 2.0 | 6.0 | 0.00 | 0.00 | 0.00 | 88 | 1006.2 |
| 20260830182521 | 72 | 70 | 2.0 | 7.0 | 0.00 | 0.00 | 0.00 | 88 | 1006.4 |
| 20260830182018 | 72 | 67 | 2.0 | 7.0 | 0.00 | 0.00 | 0.00 | 88 | 1006.4 |
| 20260830181541 | 72 | 103 | 2.0 | 6.0 | 0.00 | 0.00 | 0.00 | 88 | 1006.4 |
| 20260830181022 | 72 | 96 | 2.0 | 8.0 | 0.00 | 0.00 | 0.00 | 88 | 1006.6 |
| 20260830180517 | 72 | 114 | 3.0 | 8.0 | 0.00 | 0.00 | 0.00 | 88 | 1006.6 |
| 20260830180053 | 72 | 101 | 2.0 | 6.0 | 0.00 | 0.00 | 0.00 | 88 | 1006.5 |
| 20260830175518 | 72 | 113 | 3.0 | 8.0 | 0.00 | 0.00 | 0.00 | 88 | 1006.6 |
| 20260830175020 | 72 | 61 | 2.0 | 9.0 | 0.00 | 0.00 | 0.00 | 88 | 1006.7 |
| 20260830174542 | 72 | 101 | 3.0 | 9.0 | 0.00 | 0.00 | 0.00 | 88 | 1006.9 |
| 20260830174020 | 72 | 108 | 3.0 | 7.0 | 0.00 | 0.00 | 0.00 | 88 | 1006.8 |
| 20260830173522 | 72 | 83 | 3.0 | 7.0 | 0.00 | 0.00 | 0.00 | 88 | 1006.8 |
| 20260830173054 | 72 | 86 | 3.0 | 7.0 | 0.00 | 0.00 | 0.00 | 88 | 1006.8 |